TETUAN / SANIA RAMEL current weather conditions

sailwx.info

Wind from 100 at 10 knots

Air temperature 34.0° C
Dewpoint 11.0° C

Last reported at 2014-Aug-21 14:00 UTC.
Time now 2014-Aug-21 16:03 UTC

Location: N 35°35' W 005°20'.
View on Google Maps.

See reports from other nearby stations

  
Tides and Currents Weather Stations Pressure Air Temp Water Temp Dewpoint Dewpoint Depression Visibility Wind Speed Wind Dir Waves Ship Positions
date/time (UTC)wind fromknots sea level pressurealtimeterstation pressurevisibilityair tempwater tempwave heightnotes
2014-Aug-21 14:00 100 10 34.0
2014-Aug-21 13:00 090 11 33.0
2014-Aug-21 12:00 090 10 34.0
2014-Aug-21 11:00 260 10 35.0
2014-Aug-21 10:00 250 12 33.0
2014-Aug-21 09:00 240 11 31.0
2014-Aug-21 08:00 230 9 30.0
2014-Aug-21 07:00 200 6 24.0
2014-Aug-21 05:00 200 10 22.0
2014-Aug-21 04:00 220 6 23.0
2014-Aug-21 03:00 220 8 23.0
2014-Aug-21 02:00 190 10 23.0
2014-Aug-21 01:00 190 8 23.0
2014-Aug-21 00:00 200 7 24.0
2014-Aug-20 23:00 25.0
2014-Aug-20 22:00 280 5 28.0
2014-Aug-20 21:00 260 3 28.0
2014-Aug-20 20:00 250 11 29.0
2014-Aug-20 19:00 270 6 30.0
2014-Aug-20 18:00 260 9 33.0
2014-Aug-20 17:00 090 4 31.0
2014-Aug-20 16:00 090 7 30.0
2014-Aug-20 15:00 100 10 31.0
2014-Aug-20 14:00 090 8 30.0
2014-Aug-20 13:00 30.0
2014-Aug-20 12:00 240 9 34.0
2014-Aug-20 11:00 240 12 33.0
2014-Aug-20 10:00 260 15 31.0
2014-Aug-20 09:00 240 11 26.0
2014-Aug-20 08:00 270 8 4.324.0
2014-Aug-20 07:00 180 8 4.321.0
2014-Aug-20 06:00 200 4 4.321.0
2014-Aug-20 05:00 21.0
2014-Aug-20 04:00 250 16 22.0
2014-Aug-20 03:00 250 15 22.0
2014-Aug-20 02:00 230 8 23.0
2014-Aug-20 01:00 230 6 gusting 17 24.0
2014-Aug-20 00:00 24.0
2014-Aug-19 23:00 130 6 24.0
2014-Aug-19 22:00 23.0
2014-Aug-19 21:00 220 6 24.0
2014-Aug-19 20:00 330 8 23.0
2014-Aug-19 19:00 290 10 25.0
2014-Aug-19 18:00 290 10 28.0
2014-Aug-19 17:00 280 14 30.0
2014-Aug-19 16:00 280 14 31.0